RH
74 76 76 78 84 84 83 85 80 78 79 75 74 60 32 24 23 20 23 19 25 36 47 56 54 50 57 65 48 36 39 33 31 40 46 41 35 31 29 28 28 26 25 27 28 31 32 30 28 28 29 29 28 28 28 26 24 22 23 23 21 21 19 20 22 25 35 38 35 25 14 12 14 25 37 40 45 51 56 49 42 43 43 45 48 54 57 55 52 50 49 44 38 33 23 9 4
71 78 82 83 90 88 86 89 82 84 84 77 72 50 27 28 30 25 19 16 23 33 38 37 39 42 52 70 65 46 38 34 26 30 40 39 36 31 29 32 32 29 27 28 28 29 28 27 27 29 31 31 29 25 23 22 20 18 16 16 14 14 13 14 17 19 25 32 37 26 13 10 12 24 36 39 45 50 56 53 48 47 46 47 48 51 54 54 52 51 49 39 30 23 15 6 6
73 84 89 92 96 92 88 91 89 88 80 71 64 41 31 37 33 26 16 16 20 24 31 32 38 42 45 61 69 49 30 29 23 21 29 32 34 31 30 30 27 24 23 24 24 26 26 27 29 32 36 39 40 37 36 34 33 31 27 25 23 20 17 13 13 15 16 21 27 23 14 12 11 21 33 37 45 51 57 58 55 52 47 47 49 53 53 53 53 52 48 35 24 17 8 4 8
73 86 89 94 97 96 89 92 92 84 76 67 55 39 33 34 30 25 17 17 21 26 30 31 34 36 40 46 49 40 26 27 24 19 26 33 31 28 29 26 21 19 18 20 20 22 22 24 26 27 29 32 34 35 36 38 39 41 39 37 35 33 30 23 17 15 14 15 17 17 14 13 10 18 30 35 43 50 57 60 58 55 50 49 51 54 54 53 54 51 43 31 20 12 5 4 7
70 84 89 93 97 99 91 94 91 81 78 63 52 46 31 26 28 25 22 21 25 32 30 28 30 30 36 34 29 27 25 30 28 18 23 35 32 26 29 24 19 19 21 23 24 26 27 28 29 29 29 29 31 31 32 34 36 39 40 39 39 41 42 39 32 25 19 14 15 16 14 13 10 17 30 37 42 47 54 60 58 56 52 51 53 55 54 53 54 48 37 26 16 9 4 5 9
65 78 88 94 97 99 95 96 91 82 78 59 54 52 29 22 27 25 25 24 28 35 33 28 26 28 32 30 29 25 21 27 27 19 22 34 34 30 30 23 20 23 25 26 28 30 32 34 35 36 36 37 38 38 38 38 38 38 38 37 38 40 45 46 44 40 31 22 22 22 17 14 11 15 31 42 42 43 50 55 56 57 55 55 56 57 56 54 53 43 30 21 13 6 3 5 10
67 73 81 93 97 98 98 99 96 87 78 68 58 44 28 21 23 26 26 29 34 35 35 30 21 24 25 29 36 29 21 21 23 23 27 33 34 34 30 23 22 25 27 27 30 33 35 38 40 43 45 47 48 49 49 47 46 44 42 41 41 41 44 46 47 48 44 38 39 42 33 20 17 17 29 43 42 40 44 49 55 58 58 60 61 61 57 54 52 39 26 18 9 4 4 4 8
71 71 78 91 94 96 98 98 101 90 78 75 54 34 27 17 23 30 26 38 44 35 35 33 24 22 22 32 36 27 24 20 25 34 38 38 33 29 25 23 25 26 28 31 32 35 39 42 44 48 49 50 50 51 50 49 49 50 49 49 50 49 49 49 48 50 50 49 49 57 53 35 27 24 29 44 44 38 39 44 55 59 60 65 66 65 60 56 50 33 23 16 6 4 4 4 6
67 71 78 87 90 94 97 98 99 90 79 71 47 35 28 13 27 33 28 46 47 35 38 38 28 20 23 40 33 19 23 21 28 40 39 35 27 24 25 27 30 30 31 32 33 35 39 43 46 49 52 53 53 52 50 49 50 50 50 52 55 54 54 54 52 51 51 52 52 60 64 53 40 29 33 46 44 37 37 42 53 57 63 69 71 69 62 57 45 27 20 12 5 4 3 4 6
69 82 84 87 92 92 93 100 99 91 84 67 43 35 25 13 24 32 35 48 48 40 41 40 31 24 27 34 26 16 20 21 27 35 33 29 25 25 30 36 37 35 34 33 32 34 40 46 51 57 63 66 65 63 61 60 58 56 55 56 56 54 54 56 56 55 53 54 57 63 67 65 53 39 42 53 48 41 37 45 54 57 65 72 73 71 62 55 39 21 17 9 4 4 3 5 8
68 84 92 91 93 92 93 100 97 92 88 68 43 30 22 14 17 31 41 46 53 51 43 40 29 23 26 25 23 18 17 20 23 26 29 30 31 37 43 47 47 43 40 37 35 36 44 52 62 70 72 72 70 68 68 67 65 62 61 61 58 55 55 57 60 60 58 58 60 64 67 69 63 51 54 60 56 50 43 48 56 58 68 74 74 70 61 50 30 18 14 6 4 4 3 6 9
64 74 86 88 90 94 96 100 94 91 89 70 49 35 23 20 25 34 42 47 57 55 45 41 27 18 20 19 23 23 21 25 26 26 28 27 32 45 51 54 55 52 49 45 40 40 50 60 68 72 70 66 64 64 63 62 62 61 61 62 61 60 60 63 66 65 64 65 67 67 70 72 69 64 64 64 61 56 51 54 56 61 72 76 74 69 60 44 23 16 11 4 4 3 4 7 11
68 75 82 84 88 93 95 100 95 90 87 70 56 44 31 38 46 41 42 53 62 57 50 42 27 20 18 17 23 29 26 25 28 28 27 25 31 41 48 57 60 58 57 54 50 51 61 67 69 68 61 55 56 58 57 55 55 57 58 58 61 63 63 68 71 69 68 72 74 73 77 78 74 74 73 73 70 59 56 61 60 66 78 78 74 69 58 37 19 14 7 3 4 3 5 8 12
66 76 84 85 91 93 92 99 96 91 88 76 62 44 45 66 65 56 55 55 58 57 54 44 28 22 21 22 23 26 23 19 26 29 28 28 31 38 46 56 60 61 62 59 57 60 65 66 67 65 57 51 52 53 52 52 52 55 55 53 57 60 61 68 73 72 72 76 77 77 82 82 80 80 77 83 82 65 62 67 68 74 80 78 73 67 53 31 17 11 5 4 4 3 6 10 13
62 74 82 83 92 94 92 100 98 93 91 85 70 43 56 84 70 70 72 55 57 58 54 45 32 24 21 24 20 20 21 17 26 32 29 30 32 41 47 50 55 61 64 61 58 59 62 62 60 59 55 52 51 50 49 48 49 51 49 50 53 55 60 69 74 73 74 78 80 80 82 83 85 84 85 93 89 76 74 74 76 80 80 78 72 64 48 25 14 8 4 4 3 5 8 11 15
62 74 82 82 87 90 91 98 99 96 91 86 79 53 56 77 71 80 82 70 65 56 55 47 37 30 17 23 23 16 17 16 26 32 29 31 36 42 44 47 54 62 64 60 55 53 57 56 52 53 55 54 52 49 47 44 44 45 45 49 51 56 65 70 72 73 72 77 83 82 82 85 89 91 95 97 92 87 83 80 81 82 81 77 69 60 41 20 12 6 3 4 3 6 9 12 16
61 75 84 77 79 88 89 92 94 97 95 88 81 65 68 79 82 90 84 83 71 47 56 52 42 36 19 26 27 14 13 15 23 29 28 32 37 40 45 52 54 56 58 55 52 50 52 53 51 51 53 51 49 47 44 42 42 43 44 47 49 56 64 64 67 71 70 74 83 88 87 89 92 94 96 96 94 90 85 83 83 83 81 74 66 54 31 15 9 4 4 4 4 7 10 14 17
63 77 78 67 73 88 87 86 90 96 99 96 82 69 85 83 75 87 79 81 71 46 57 56 47 40 26 30 26 15 13 13 19 24 27 33 36 40 47 51 47 48 51 49 46 47 52 56 54 51 49 49 50 49 45 42 41 44 45 46 47 52 58 60 64 69 70 71 78 88 92 93 94 94 94 93 90 87 85 83 82 82 78 69 62 42 20 13 7 3 4 4 6 9 11 15 17
76 82 73 67 74 83 86 87 89 96 98 101 87 70 88 75 59 78 70 66 63 48 53 54 47 37 30 31 21 15 12 11 16 19 26 33 37 41 42 42 42 47 47 44 43 46 53 55 50 44 45 49 49 46 42 40 43 46 46 45 46 48 54 59 62 68 72 73 76 84 89 91 94 93 92 89 85 85 85 80 81 81 73 65 51 28 15 12 5 3 4 4 8 10 13 15 17
88 86 74 73 75 77 83 87 84 94 99 101 90 76 90 81 70 81 59 49 55 48 45 43 42 32 30 30 18 15 13 13 15 17 25 32 39 45 42 35 38 44 42 41 41 42 46 45 38 35 40 45 43 39 37 40 45 48 47 44 43 44 47 50 54 62 70 74 77 82 86 87 90 91 88 85 84 86 83 80 81 77 67 56 35 18 15 10 4 4 4 5 9 10 14 16 17
78 79 74 70 69 73 80 81 78 92 100 99 95 86 91 89 87 88 63 50 46 37 35 38 40 32 28 26 18 16 14 17 20 19 25 31 39 45 41 33 34 40 38 36 35 36 40 39 34 33 39 43 40 36 35 40 44 45 44 41 41 41 44 48 54 61 69 74 80 85 87 88 89 88 85 83 86 86 83 82 79 70 58 40 22 15 13 6 4 4 4 8 10 12 14 17 18
65 75 74 64 62 74 80 76 74 89 98 95 99 93 85 88 87 73 59 56 39 24 31 41 43 34 28 23 17 18 18 24 26 22 25 31 36 39 40 38 37 37 34 31 31 34 37 39 40 39 41 43 41 37 36 38 40 41 40 39 39 39 43 52 60 66 72 77 83 89 89 90 91 88 84 84 87 85 83 81 73 60 43 24 16 15 9 4 4 4 6 9 11 13 15 17 18
65 74 68 60 65 78 82 76 69 83 95 92 99 96 83 86 83 58 50 60 48 31 37 45 41 32 27 21 17 21 26 30 29 25 25 29 35 40 40 39 39 35 31 31 31 33 36 39 42 40 39 40 41 42 43 40 38 40 40 39 35 33 40 53 62 68 73 77 81 85 89 90 90 87 85 86 86 85 82 75 61 43 26 17 15 12 7 4 3 5 8 10 12 14 15 17 18
65 72 65 62 69 76 76 70 64 75 89 90 94 96 88 82 74 57 52 63 57 42 44 49 42 33 26 20 18 25 31 28 28 29 27 29 35 40 36 34 39 37 35 34 31 34 39 40 38 35 35 36 41 46 48 42 36 39 41 39 33 29 37 49 60 66 70 76 76 78 83 86 86 85 84 84 84 81 72 57 40 25 17 16 14 8 5 4 5 7 9 10 12 15 15 16 17
59 67 66 64 65 69 67 63 70 81 87 91 95 97 96 86 70 59 60 68 61 45 45 49 45 38 29 20 17 25 32 26 27 33 28 29 34 34 28 26 32 37 42 43 36 35 38 38 33 31 35 37 39 44 46 42 36 37 40 37 32 31 35 43 55 62 65 72 75 74 76 79 80 81 82 81 74 61 46 31 22 18 18 16 11 6 4 7 10 9 10 11 12 15 15 14 17
57 67 68 66 62 63 61 61 78 92 90 93 99 98 97 92 75 63 69 73 61 46 44 46 44 41 32 21 18 25 34 29 27 30 26 28 33 34 28 19 24 35 43 44 36 34 40 39 29 26 35 38 35 39 43 41 35 34 37 34 31 35 37 40 52 59 60 66 72 73 72 73 76 79 78 66 48 32 23 19 18 19 18 14 8 5 7 9 10 9 10 12 12 15 15 15 17
51 63 66 65 64 62 59 59 76 91 92 93 96 96 96 95 83 72 77 75 65 56 51 47 42 41 34 22 19 24 33 31 26 27 26 28 32 35 32 19 20 32 41 43 37 35 38 34 27 26 32 35 33 37 40 38 35 33 35 34 30 34 34 37 49 58 59 61 66 71 72 73 74 70 57 38 24 20 20 19 18 17 14 12 8 6 8 8 8 10 11 11 13 15 16 17 18
38 52 59 61 62 63 61 62 77 88 89 91 93 94 96 94 87 82 78 70 71 72 62 53 46 43 36 24 20 21 29 33 28 27 26 28 31 34 35 23 18 29 36 38 40 42 35 22 21 26 29 32 33 35 35 33 32 32 33 32 28 29 29 32 46 57 59 58 61 66 67 65 59 47 33 24 22 22 20 18 14 12 10 9 8 7 6 6 8 11 11 11 13 16 18 19 19
34 48 57 60 61 62 61 64 76 83 84 91 94 94 95 91 86 84 76 69 79 81 66 56 49 47 38 24 21 20 27 36 32 30 29 26 29 32 36 29 18 25 30 27 33 39 29 16 14 19 25 31 34 31 29 27 28 29 29 27 24 25 24 28 45 57 57 56 57 60 58 53 44 35 29 27 24 21 18 15 11 9 10 11 9 7 5 7 11 12 12 12 12 15 19 19 19
32 45 59 63 65 63 59 65 76 81 86 93 95 97 97 92 89 89 83 79 86 81 67 57 48 49 41 24 22 21 26 38 37 33 32 27 27 30 35 33 20 22 28 22 25 28 20 15 14 14 18 24 29 27 24 25 27 28 27 24 20 20 21 24 40 55 54 50 51 54 53 47 41 36 31 27 22 19 17 14 12 11 12 11 8 6 6 9 11 12 13 12 11 13 16 17 17
39 45 56 62 67 64 57 66 81 86 92 97 97 98 99 95 93 93 89 86 84 75 62 53 47 49 42 27 23 21 22 37 42 35 32 30 27 27 31 31 24 21 21 18 20 22 17 16 14 12 15 18 20 20 20 24 27 27 26 23 20 18 19 20 30 45 50 45 41 42 42 38 34 30 25 22 19 18 16 13 12 11 9 7 6 7 9 11 11 13 13 12 12 12 13 15 16
54 51 55 59 64 67 59 59 73 88 95 98 99 99 98 96 94 92 89 86 79 65 52 46 47 48 43 33 25 19 18 30 42 38 32 31 27 27 30 28 25 21 16 16 19 19 16 15 14 13 16 18 17 16 18 22 24 26 24 20 19 18 18 18 21 30 39 40 36 32 31 28 25 23 20 18 17 16 14 12 9 8 6 6 7 9 10 12 12 13 13 13 12 12 13 15 17
60 61 67 67 67 70 67 61 64 82 97 99 100 100 99 99 97 92 87 85 78 62 46 42 47 47 43 36 27 18 14 19 32 36 30 31 29 26 28 26 25 22 14 15 18 17 16 14 14 12 12 13 13 13 16 20 22 23 23 20 18 18 17 17 17 20 27 32 34 30 27 24 21 19 17 15 14 13 11 10 8 7 7 8 10 12 14 16 15 14 14 13 12 13 14 15 20
59 61 74 76 74 71 70 73 70 76 93 100 98 99 100 99 99 96 90 86 81 66 46 41 46 48 43 36 28 20 15 13 20 31 27 26 30 24 24 24 24 24 16 13 16 17 16 13 13 10 7 9 10 14 16 18 20 20 22 20 17 19 20 18 16 16 18 22 26 27 25 23 21 17 15 12 10 9 8 7 7 7 9 10 13 16 19 21 20 17 15 14 13 13 14 16 20
61 55 67 74 77 74 72 80 82 79 87 96 100 100 99 99 99 99 98 93 85 69 47 42 47 51 49 37 28 22 17 13 15 27 26 22 26 22 19 21 21 22 19 14 14 16 16 13 12 10 6 7 9 14 16 15 17 17 18 18 16 17 20 19 15 12 12 13 15 16 16 16 14 12 9 8 8 9 10 11 12 13 15 17 19 20 21 23 22 21 19 15 13 12 14 16 17
63 54 58 68 73 77 79 81 84 86 87 91 96 97 96 98 100 99 100 97 91 75 48 39 46 54 57 44 30 24 19 17 17 25 27 21 23 19 15 19 19 20 20 17 14 15 17 13 11 10 7 8 11 14 16 14 13 14 13 12 12 12 14 14 11 9 7 7 8 7 7 7 7 7 7 9 11 13 15 17 19 20 22 23 23 22 21 21 21 22 22 16 14 12 13 14 17
65 57 55 60 64 71 79 80 81 86 92 91 88 89 91 94 99 100 100 99 97 87 59 39 44 57 63 53 39 31 25 20 19 24 25 20 21 18 13 16 17 18 19 19 16 14 17 14 10 9 7 7 11 14 16 16 13 12 10 7 8 9 10 11 8 7 6 6 7 7 7 7 7 8 9 11 14 16 17 18 21 22 22 21 21 20 19 19 19 21 21 16 13 12 13 16 20
72 68 65 61 62 67 72 77 78 82 92 93 86 85 84 85 94 99 100 100 98 99 77 44 42 58 64 62 53 42 36 26 20 23 24 20 20 18 13 13 15 17 17 19 19 16 16 16 12 9 7 6 9 11 14 16 12 9 7 6 6 6 8 11 11 10 10 10 11 12 12 11 10 9 8 9 10 12 14 16 18 18 18 17 19 19 17 20 22 20 16 14 13 13 14 17 20
80 78 83 78 77 75 69 74 78 81 88 90 90 85 77 83 96 99 99 100 98 101 86 51 47 61 61 65 63 55 48 34 25 27 25 19 18 18 14 12 13 15 16 17 18 17 16 18 16 10 7 6 6 7 9 12 12 8 5 4 5 5 5 6 8 8 8 9 9 10 10 8 7 7 7 7 6 8 11 13 14 14 15 15 16 17 17 19 21 18 14 13 15 16 15 17 19
80 75 87 92 93 85 75 77 78 81 83 84 92 90 83 89 98 99 99 99 99 101 89 61 56 64 65 67 66 63 59 44 34 32 27 21 17 16 15 12 12 13 15 16 15 16 16 17 18 13 9 7 5 6 6 8 11 10 8 6 4 4 5 4 4 5 4 5 5 5 5 5 5 6 8 10 11 13 12 10 11 13 13 12 13 16 19 20 20 21 18 15 16 15 16 20 25
80 74 84 93 95 88 81 81 80 82 84 83 87 90 90 92 95 99 99 98 99 100 92 74 64 67 71 69 59 58 60 52 45 38 32 28 21 17 15 12 11 12 12 14 15 16 16 16 19 17 12 8 6 6 6 6 7 9 10 9 8 6 5 5 5 4 4 4 5 5 6 7 7 8 10 11 14 18 15 10 10 13 12 12 14 15 17 19 19 20 20 18 16 15 18 24 28
85 77 82 92 97 91 83 81 80 84 89 89 88 90 93 93 95 99 99 99 100 100 95 85 76 74 74 70 58 51 54 54 54 49 41 36 29 20 16 13 11 12 12 12 14 16 16 15 17 20 17 12 9 7 5 6 5 5 7 7 8 9 6 5 5 4 5 4 5 8 9 11 11 11 12 11 13 16 15 12 10 12 13 13 15 17 17 19 19 18 17 17 16 14 17 21 23
93 86 85 92 97 93 86 81 79 82 90 93 93 95 97 95 96 98 99 100 100 100 100 91 80 75 75 74 63 49 49 53 57 59 49 42 39 27 18 18 13 11 12 11 12 15 16 16 15 18 20 16 14 10 7 12 12 8 8 8 8 8 5 4 4 3 3 4 6 10 12 12 11 10 11 11 11 11 12 13 10 10 13 14 16 19 20 21 20 18 15 15 15 15 17 18 21
98 93 89 89 93 95 94 87 80 80 85 88 91 94 94 92 93 97 98 100 100 99 101 96 86 80 78 78 68 51 44 47 53 62 58 51 52 40 25 24 18 12 12 11 11 12 15 19 19 16 17 19 20 17 14 20 25 20 16 17 15 11 7 5 6 7 8 9 10 12 12 11 10 8 8 9 9 9 9 11 9 8 10 14 17 18 19 20 18 17 16 15 15 15 16 17 20
94 88 85 86 94 98 96 89 80 79 80 80 83 86 87 86 90 97 96 95 99 100 100 99 95 89 84 81 75 61 46 41 46 59 64 60 61 54 37 30 25 16 12 11 11 10 12 18 21 17 15 18 20 20 20 22 24 24 21 21 18 13 12 12 11 15 17 15 13 14 13 12 9 6 6 6 7 7 8 10 10 8 9 15 19 18 17 18 18 18 17 16 15 15 16 18 20
90 87 83 89 98 94 87 84 80 77 76 74 75 78 81 84 88 94 96 94 94 97 99 100 100 97 94 90 87 77 60 48 49 57 63 59 55 54 45 35 31 23 14 11 11 10 10 13 18 18 16 17 16 18 25 25 21 23 25 26 24 18 19 22 19 19 20 16 14 14 16 15 10 7 6 5 6 6 7 9 10 10 12 15 17 17 18 19 21 20 17 16 16 17 17 18 20
91 88 87 94 97 84 76 78 75 74 73 70 73 75 78 84 87 86 91 96 92 91 95 97 97 96 97 99 97 90 76 64 58 57 57 51 41 42 42 38 37 33 19 11 11 11 9 10 15 17 17 18 16 15 23 26 23 24 26 28 30 26 24 27 24 22 21 19 18 17 17 17 13 10 6 5 6 7 7 7 8 11 14 15 14 15 18 18 19 20 18 18 17 16 17 16 18
90 92 94 94 85 70 66 70 68 70 74 73 74 75 78 86 88 83 83 90 92 89 89 89 90 90 91 97 100 97 89 77 69 62 56 49 38 35 38 39 43 43 30 15 11 11 9 10 12 14 16 17 18 17 19 23 24 27 27 26 31 32 29 28 24 23 23 22 23 21 20 19 16 13 8 6 6 6 7 7 8 10 11 12 13 14 16 17 18 19 19 20 19 17 17 16 16
84 91 90 85 77 68 70 73 68 73 81 79 78 81 87 87 85 84 80 80 85 86 88 88 87 85 82 86 95 99 96 88 80 73 67 59 49 43 40 41 46 50 40 22 13 11 9 10 10 12 15 16 18 19 20 24 25 28 32 32 34 36 37 35 26 25 27 26 27 26 24 22 19 17 11 7 6 6 7 7 9 11 9 9 11 14 17 17 17 17 18 20 20 19 19 18 17
86 90 82 80 84 82 84 79 72 81 89 88 86 86 89 85 81 84 83 81 81 82 90 93 88 85 81 79 86 94 98 98 93 86 82 77 69 62 55 47 45 50 47 29 17 15 11 9 9 11 14 14 15 17 22 28 28 28 32 36 38 39 44 45 37 35 37 33 32 32 29 25 21 20 16 11 8 6 6 6 8 10 9 7 9 12 16 17 17 16 16 18 19 19 20 18 17
88 91 87 87 86 84 87 79 72 82 86 85 85 79 82 87 87 88 89 90 88 85 92 95 88 85 81 76 77 82 89 93 91 85 84 88 85 80 75 62 49 50 48 33 23 19 14 11 11 11 14 14 14 14 18 26 30 29 29 32 38 41 48 51 46 47 49 44 39 36 34 28 23 23 20 15 13 9 6 6 6 8 9 7 7 10 11 11 13 13 14 17 19 19 20 18 19
86 93 94 93 87 84 85 77 76 83 79 77 77 71 77 89 93 94 94 97 96 87 87 87 82 79 78 78 77 78 81 80 77 72 74 87 95 91 90 82 64 53 47 41 39 31 20 16 15 14 16 18 18 14 12 18 25 29 29 29 33 40 50 54 49 50 54 52 47 41 38 33 29 29 23 17 16 13 9 6 5 7 8 8 7 7 7 6 7 8 11 14 14 16 18 17 19
79 89 94 95 91 89 85 79 83 85 75 71 73 69 72 80 88 95 94 94 91 80 75 74 73 72 75 81 81 80 80 76 72 68 68 82 95 98 99 95 82 65 52 51 55 45 29 21 19 17 16 17 17 14 10 12 16 22 28 32 35 40 47 54 53 53 56 57 52 46 42 38 39 41 34 25 20 16 12 9 6 5 6 9 9 7 6 6 6 6 6 8 9 12 17 16 16
75 83 89 89 85 80 73 70 78 83 75 70 69 66 68 70 75 83 84 83 79 69 65 64 66 68 68 74 80 78 76 73 70 67 66 70 78 86 93 94 92 81 63 53 51 46 36 27 24 23 19 18 21 18 11 9 11 15 20 28 36 41 45 51 56 57 60 60 56 50 47 43 43 43 39 34 30 25 19 13 10 8 5 7 9 7 6 6 9 11 8 7 8 9 15 18 16
85 86 85 81 78 75 68 62 64 72 73 69 63 59 62 65 66 69 72 73 69 62 59 57 57 60 62 68 74 75 74 72 67 63 63 62 63 71 79 84 91 88 74 56 42 37 34 29 28 30 26 28 35 32 22 15 11 10 12 18 26 33 40 48 55 57 58 61 58 52 49 46 44 40 36 37 37 36 33 23 15 11 8 8 9 7 7 7 10 16 12 9 11 8 9 14 14
90 87 79 74 78 81 79 69 63 69 72 66 62 59 62 68 69 68 66 64 63 60 58 56 54 52 54 59 63 67 71 73 70 66 64 61 59 62 71 82 94 95 88 71 48 34 30 25 27 31 30 32 37 38 36 32 22 13 10 12 15 21 28 38 46 50 54 59 57 51 48 47 44 40 38 40 39 39 43 39 27 18 12 12 13 9 8 7 9 15 15 11 13 11 9 11 10
84 80 74 72 75 80 82 75 71 78 79 73 71 68 68 73 74 70 64 58 59 60 59 60 59 52 48 51 57 62 67 70 72 71 67 62 58 60 67 80 94 99 97 85 61 41 32 26 25 27 27 26 25 26 31 34 32 23 14 10 11 13 16 22 28 33 40 48 49 44 44 46 45 41 39 42 42 39 44 46 40 32 22 16 17 16 14 12 11 15 16 14 13 14 13 15 15
77 76 73 70 69 75 76 71 74 82 82 78 74 70 72 77 75 69 63 55 53 54 52 56 63 59 49 47 53 61 65 67 69 69 68 65 63 65 67 71 84 95 98 92 73 53 41 33 25 21 19 19 19 18 19 21 25 24 18 13 12 11 11 14 16 20 24 30 34 33 33 40 46 45 39 40 43 41 41 41 40 39 33 23 19 20 23 21 17 16 17 15 15 14 14 16 18
Wind_Speed
5 5 4 4 4 4 5 5 6 6 7 7 7 7 5 4 3 5 7 8 8 8 5 3 2 4 5 6 8 10 10 8 11 13 11 10 8 10 11 11 10 10 12 12 11 11 10 9 8 8 8 8 8 8 7 6 6 6 6 5 5 5 4 4 4 4 5 5 5 5 5 4 5 6 7 8 8 8 8 8 8 8 8 9 10 10 10 9 9 10 10 10 11 12 13 14 14
5 4 2 2 2 4 6 6 7 5 5 6 6 6 4 4 3 5 8 9 9 7 5 3 3 4 4 6 6 8 10 7 9 13 13 11 9 8 10 11 10 10 11 11 11 10 10 9 8 8 7 7 6 6 5 5 4 4 4 4 4 4 4 4 4 4 4 5 4 4 4 4 5 6 8 8 8 8 8 8 8 8 8 9 10 10 10 9 9 10 11 10 11 12 13 14 13
5 4 3 3 2 4 6 6 6 4 4 5 5 5 4 3 4 5 8 10 9 6 4 4 4 4 4 6 6 6 9 9 7 12 14 12 11 9 9 10 9 10 11 10 10 10 9 8 8 8 7 6 6 5 4 4 3 3 3 3 2 3 3 3 4 4 5 4 4 4 4 4 5 7 8 9 8 8 8 8 8 8 8 9 9 10 10 9 9 10 10 10 11 12 14 14 13
5 5 4 4 2 4 5 6 6 5 6 5 4 3 3 4 5 6 8 10 8 5 4 5 5 4 4 4 6 8 8 8 5 9 14 11 9 10 9 9 9 9 10 10 10 10 9 8 8 7 7 6 5 5 4 4 3 3 3 3 3 2 2 3 4 5 5 5 5 5 5 5 6 7 9 9 9 8 9 8 8 8 8 8 9 10 10 10 10 10 10 10 11 13 14 13 13
4 5 3 5 3 3 5 8 7 7 8 7 5 4 4 4 6 7 9 10 7 5 5 5 4 4 4 3 5 8 9 8 4 6 14 12 7 9 9 8 9 9 9 9 10 10 9 8 8 7 6 6 5 5 5 4 4 4 4 4 4 3 3 4 4 5 6 6 6 6 6 7 7 8 9 9 9 9 9 9 8 7 7 8 9 9 10 10 10 10 11 11 12 14 15 13 13
3 4 4 6 5 3 7 10 9 9 8 8 7 5 4 4 7 8 9 9 7 5 5 5 4 3 3 3 4 5 8 9 6 6 12 13 8 8 9 8 8 9 9 9 9 9 9 8 8 7 7 6 6 5 5 4 4 4 4 3 4 4 5 6 6 7 7 7 7 7 8 8 8 8 9 10 9 9 9 9 8 8 7 8 8 9 9 10 10 10 11 12 13 15 15 14 13
3 4 6 8 7 6 8 12 12 11 9 9 8 6 4 4 6 7 8 9 7 4 4 5 4 3 3 4 3 2 5 8 8 8 12 13 10 9 9 8 8 8 9 9 9 9 9 9 9 9 8 7 7 6 5 5 4 4 4 4 5 5 6 7 9 8 8 8 8 8 8 8 8 8 8 9 9 10 9 9 8 8 7 8 9 9 9 10 10 10 11 12 14 15 15 14 13
4 5 6 8 8 10 5 14 14 11 11 10 8 5 5 4 6 6 8 9 7 3 3 4 4 4 3 4 3 3 5 6 9 10 12 13 11 10 9 9 8 8 9 10 10 10 10 10 10 9 9 8 8 7 7 6 5 5 5 6 6 7 8 9 9 9 9 9 10 10 10 9 9 9 9 8 9 9 9 9 8 8 8 8 9 9 9 10 10 11 11 13 15 15 15 14 13
3 5 5 8 8 10 4 15 15 12 12 10 8 6 6 5 6 6 8 8 6 3 3 4 4 4 3 4 2 4 5 5 9 11 11 12 11 11 11 10 9 9 10 11 11 10 11 10 10 9 9 8 7 7 7 6 6 6 6 6 7 8 8 8 10 10 10 10 10 11 10 9 10 11 10 10 10 9 9 8 8 8 8 8 9 10 10 10 11 11 11 13 15 15 15 14 13
3 7 6 9 8 10 5 16 17 13 14 10 8 7 7 6 5 6 7 8 6 3 3 3 3 3 3 4 3 4 5 6 10 12 11 11 11 11 11 11 10 10 11 11 11 11 11 10 10 9 8 8 7 6 5 5 5 5 5 6 7 7 8 8 9 10 11 11 11 11 11 11 11 11 11 10 10 10 9 8 8 8 8 9 10 11 11 11 11 11 12 14 15 15 15 14 13
3 7 7 10 8 11 4 18 19 15 14 9 7 5 6 5 6 6 7 7 6 3 3 2 2 3 3 4 4 4 5 6 8 11 11 10 11 11 11 11 11 11 11 11 11 11 11 10 10 9 8 7 6 6 5 5 5 5 5 5 6 7 7 8 8 9 11 12 12 12 12 12 11 11 11 11 10 10 10 9 8 8 9 10 12 12 12 11 12 12 13 14 15 15 14 13 12
4 5 7 11 10 12 2 20 18 16 14 7 7 3 3 4 6 7 7 8 6 3 2 2 2 2 3 4 5 5 5 7 8 10 11 10 11 11 11 11 11 11 11 12 11 11 11 10 10 9 8 7 7 6 6 5 5 5 5 6 7 7 7 7 8 9 10 11 11 11 11 12 12 12 12 11 11 11 10 9 9 8 9 11 13 13 13 12 12 13 15 15 15 14 13 13 12
4 6 6 10 9 11 1 18 17 16 13 7 9 4 3 5 6 6 6 7 5 3 2 2 2 2 4 5 5 5 5 7 8 9 10 10 10 10 10 11 11 11 12 12 12 11 10 10 10 9 8 7 7 7 6 6 6 6 6 6 7 8 7 7 8 9 9 10 10 11 12 12 12 13 12 12 12 12 11 10 9 9 10 13 14 14 14 14 13 15 16 15 15 14 13 12 11
4 5 4 7 6 9 4 12 15 13 10 8 9 6 6 5 5 6 6 6 4 3 3 2 2 3 6 6 5 5 3 6 8 9 11 10 10 10 10 10 11 11 11 12 12 11 10 9 9 9 8 7 7 7 7 7 7 7 6 5 7 8 7 8 9 9 9 10 10 10 11 12 12 13 13 12 12 12 11 10 10 11 13 15 15 15 15 15 15 16 16 16 15 14 13 12 11
5 5 4 5 6 8 7 5 10 11 9 9 8 6 10 9 5 6 5 4 4 3 2 2 2 4 6 6 6 5 3 5 7 9 11 10 10 11 10 9 10 11 12 12 12 11 10 9 10 9 8 7 7 7 7 8 8 8 6 6 7 7 7 8 9 9 9 10 10 10 11 12 12 13 13 13 12 11 11 11 12 13 15 16 16 16 16 15 16 17 17 16 15 14 12 11 10
6 5 3 3 5 6 5 4 3 11 11 10 8 8 12 13 8 5 5 3 3 2 2 2 3 4 6 7 6 5 3 5 7 9 10 10 10 11 10 9 9 11 12 12 11 10 10 10 10 9 9 8 8 8 8 9 9 9 8 8 7 7 7 8 8 9 9 9 10 10 11 12 13 13 13 13 13 12 12 12 14 15 16 17 17 16 16 15 17 17 16 16 15 14 12 11 10
8 5 1 1 3 5 3 5 3 9 12 10 10 9 11 13 10 7 7 5 3 1 2 1 2 4 5 6 6 5 3 5 7 7 9 10 10 10 10 10 10 11 11 11 11 10 10 10 10 10 10 10 10 9 9 9 10 11 10 10 8 7 8 8 8 9 9 9 10 11 11 12 13 13 13 13 13 13 13 14 15 16 17 18 17 17 16 16 17 17 16 15 14 13 12 11 10
7 5 2 2 2 3 4 4 6 3 11 11 11 11 11 13 11 10 9 6 4 1 1 0 2 3 4 6 6 4 3 4 6 7 9 10 9 9 10 10 10 11 11 11 11 11 10 10 10 10 10 10 10 10 9 10 11 12 11 10 9 9 8 8 8 8 9 9 11 11 11 12 12 12 13 14 15 16 16 17 17 17 18 19 18 17 17 17 18 16 15 15 14 13 11 10 10
6 4 3 4 4 2 2 2 5 2 8 12 10 11 12 12 11 12 10 7 5 3 3 2 2 2 4 6 6 4 3 3 5 7 9 10 9 9 10 10 11 11 11 11 10 10 10 10 10 9 9 10 11 10 10 10 12 12 11 10 9 9 9 8 8 8 8 9 11 12 12 12 12 12 14 16 17 19 19 19 19 19 20 19 19 18 18 18 18 16 15 15 14 12 11 10 9
7 5 5 4 5 4 1 0 3 2 7 12 10 10 13 12 10 13 10 7 7 5 5 3 1 2 3 5 6 5 3 3 4 6 8 9 9 9 9 10 11 11 12 11 10 9 9 10 10 9 10 11 12 11 10 11 12 12 12 11 10 10 10 9 8 9 9 9 10 12 12 12 12 13 15 17 19 20 20 20 20 20 20 20 19 18 18 18 17 16 15 14 13 12 11 10 9
9 7 6 7 6 6 3 2 4 4 7 12 13 12 15 15 13 12 8 5 7 6 4 3 2 2 3 5 6 5 4 3 4 5 7 9 9 8 9 10 11 11 12 11 10 9 10 10 10 10 10 11 11 11 11 11 12 12 12 12 11 11 11 10 10 10 10 10 11 12 13 13 14 15 17 18 20 21 21 20 20 20 21 20 19 18 19 18 17 16 15 14 11 10 11 10 9
11 8 7 9 8 6 5 4 4 5 8 12 15 14 16 18 16 12 7 6 6 5 5 5 4 2 3 5 6 7 5 4 4 5 7 9 9 8 8 10 10 11 12 12 11 10 10 10 10 10 10 11 11 11 12 12 12 12 12 12 12 11 12 12 12 12 12 12 13 13 14 15 16 18 18 19 21 22 21 20 20 20 20 19 18 18 18 17 16 15 14 13 10 9 9 10 9
13 11 9 10 8 6 7 6 5 6 8 12 17 17 17 18 15 11 9 8 6 5 5 5 4 2 3 5 6 7 7 5 3 3 6 8 9 9 8 9 10 11 12 12 11 10 10 10 10 9 9 11 12 11 12 12 12 13 13 12 12 12 13 14 15 15 14 14 15 16 17 18 19 20 21 21 22 22 21 20 20 20 19 18 18 18 17 15 14 14 13 12 10 8 7 9 9
14 12 10 10 9 7 8 7 7 8 10 13 18 17 18 19 15 12 10 9 7 7 7 5 4 3 3 5 7 7 7 5 3 2 4 7 9 9 7 7 9 10 12 13 11 10 10 10 10 9 10 11 11 11 12 12 12 13 13 12 12 13 14 15 16 17 17 16 16 18 19 20 21 22 23 23 23 23 22 21 20 19 18 17 17 17 16 14 13 12 12 12 10 7 7 8 8
14 12 9 9 9 8 8 7 7 10 10 11 18 18 18 18 15 13 10 9 9 9 9 7 5 3 3 4 7 7 8 6 3 2 3 6 8 8 8 7 8 10 12 13 12 11 10 10 10 10 10 10 10 10 12 13 12 13 13 13 12 13 14 15 16 18 19 18 17 18 21 23 23 24 24 23 23 23 22 21 20 17 16 16 16 16 15 14 13 12 11 11 10 8 7 6 6
14 12 10 9 10 8 7 7 5 9 10 13 19 19 17 16 13 11 10 10 10 9 9 8 6 4 4 4 6 8 8 6 3 2 3 5 7 7 8 7 8 10 11 12 12 12 11 11 11 10 10 10 10 10 12 12 12 12 13 13 13 13 13 14 16 18 20 19 18 19 21 23 24 24 24 24 23 23 22 21 19 17 16 16 16 15 14 13 12 11 10 10 10 8 7 6 5
16 13 11 10 10 8 8 8 5 8 12 16 20 21 19 15 12 10 10 11 9 8 8 8 7 5 5 5 6 8 8 7 4 2 2 4 6 6 7 7 7 9 10 11 12 12 11 11 11 11 11 11 10 11 11 12 12 12 13 13 13 13 13 14 16 17 19 20 20 20 21 23 24 24 24 24 23 22 20 19 18 18 17 16 15 14 13 12 11 10 10 10 10 9 7 6 4
18 15 12 11 10 10 9 8 7 7 10 14 20 23 20 17 15 12 12 11 9 8 8 8 8 7 7 7 7 8 9 8 5 3 3 3 5 5 6 6 7 9 10 10 11 12 11 10 11 11 12 12 11 11 11 11 11 12 13 14 14 13 14 15 16 17 19 20 21 21 22 23 23 24 23 22 21 19 18 18 18 18 17 16 13 12 12 11 11 10 9 8 9 9 7 6 5
19 16 13 12 12 12 10 8 7 8 9 13 20 22 19 19 17 14 13 12 11 10 9 8 9 8 8 8 7 8 9 9 6 4 3 2 3 5 6 6 6 8 10 10 10 11 11 10 11 11 12 12 12 11 11 11 12 12 14 15 15 14 14 15 16 18 20 20 21 22 22 23 23 23 22 20 19 17 17 17 17 17 16 14 12 10 10 10 10 9 8 7 8 9 8 7 6
20 17 14 13 13 13 11 6 5 8 11 14 20 23 19 18 17 15 14 12 12 11 10 10 10 9 9 8 8 9 9 9 8 6 3 3 3 4 5 5 5 7 9 11 10 11 11 10 11 11 12 12 12 12 12 12 12 13 14 15 16 15 15 16 17 18 20 21 22 22 22 23 22 22 20 19 17 16 16 16 16 16 15 13 11 10 9 9 8 8 8 7 7 8 8 7 7
18 17 15 14 13 13 11 6 4 8 13 15 20 22 19 19 18 16 16 15 13 12 11 11 11 11 10 9 9 10 10 10 9 7 5 4 3 2 4 5 5 6 9 11 11 11 11 11 11 12 13 12 12 13 13 13 13 14 15 15 16 16 15 16 18 18 19 21 22 22 22 22 22 21 19 18 17 16 16 16 15 14 13 12 10 9 8 8 7 7 8 8 6 5 4 4 5
17 18 18 16 14 12 11 9 7 8 12 18 21 21 20 20 19 17 17 16 14 12 11 12 13 12 11 11 10 10 11 11 10 8 6 5 4 3 3 5 5 5 8 11 12 12 12 12 12 13 14 13 13 14 14 14 14 15 15 16 16 16 16 17 18 18 19 20 21 21 21 21 20 20 19 18 18 17 15 14 12 11 11 10 9 8 7 7 7 7 7 7 7 5 4 4 6
18 18 18 17 15 12 11 11 10 8 10 18 22 21 21 21 19 18 18 16 14 12 11 13 14 13 12 12 11 11 11 12 12 10 9 7 5 4 3 4 5 5 7 9 11 12 12 12 12 13 14 14 14 15 15 15 15 15 16 16 16 15 15 17 18 18 18 19 20 20 20 19 19 19 18 18 17 16 15 13 11 10 9 8 7 7 7 6 6 7 6 6 7 7 5 5 7
21 20 17 17 15 14 13 11 11 8 7 14 22 22 21 21 19 17 16 16 15 13 12 15 15 14 14 13 11 11 11 12 12 11 10 9 7 6 5 5 5 5 5 7 10 11 12 12 12 12 14 15 15 15 15 15 15 16 16 16 17 16 15 17 18 18 19 19 19 19 19 19 18 18 17 16 15 14 13 12 10 9 7 7 6 6 6 6 6 7 7 7 7 7 6 6 8
24 22 19 19 17 15 15 11 10 9 6 9 16 18 18 19 18 16 16 16 15 14 14 16 16 15 15 14 12 11 11 11 11 12 11 10 8 7 6 6 5 5 5 6 8 10 11 12 12 12 13 15 15 15 16 17 17 17 16 16 17 17 17 17 18 18 19 19 19 19 18 18 17 16 15 14 13 12 11 10 9 8 7 6 5 5 5 5 5 6 7 8 8 8 7 6 6
24 23 22 20 18 16 15 13 10 8 7 7 11 13 13 15 16 17 17 17 16 15 15 17 17 17 16 14 13 12 11 10 10 11 11 11 9 8 7 7 6 6 5 5 6 8 10 11 12 12 13 14 15 16 16 18 18 18 17 17 18 19 18 18 18 18 19 19 18 18 17 17 16 15 14 12 11 10 9 9 8 6 5 4 4 4 4 4 4 6 7 8 8 7 6 4 3
23 23 23 21 21 19 16 15 12 10 8 7 10 12 12 12 14 17 19 18 17 17 16 18 18 17 16 15 14 13 12 11 10 11 11 11 10 9 8 8 7 7 6 5 5 7 9 11 12 12 13 14 15 16 16 17 18 19 19 19 19 19 19 19 18 18 18 18 17 16 15 14 13 12 12 11 9 7 6 6 6 5 4 3 3 4 4 4 4 6 7 7 7 6 5 5 5
24 22 22 23 22 19 18 16 14 13 10 9 11 13 14 13 13 19 22 20 19 20 19 18 19 18 18 16 15 14 12 11 10 11 11 11 11 9 9 9 8 7 6 6 5 6 8 10 11 12 13 14 15 16 16 17 18 18 19 19 19 18 18 18 17 17 16 16 15 14 13 12 11 10 9 9 8 6 5 5 4 4 4 4 4 4 4 5 5 6 7 7 6 5 5 6 7
25 23 20 19 18 17 18 17 15 14 13 11 12 14 16 15 16 19 22 21 20 21 20 19 19 18 18 18 16 14 13 11 10 11 11 11 11 10 9 9 9 8 7 7 6 6 7 9 10 11 12 13 15 15 15 16 17 17 18 18 18 17 17 16 16 15 14 13 12 12 11 10 9 9 8 8 7 6 5 4 4 4 4 5 5 5 5 5 6 6 7 7 7 6 6 7 7
27 26 21 17 14 15 17 17 16 15 14 13 11 13 15 16 19 21 22 24 22 20 21 21 20 18 18 19 18 15 14 13 11 12 12 10 10 10 10 10 10 9 9 8 7 7 8 8 10 11 11 12 13 15 15 14 15 16 16 16 16 16 15 14 14 13 12 11 10 10 9 9 8 7 6 6 6 6 5 4 4 5 5 6 5 6 6 6 7 7 8 7 7 7 8 8 7
27 26 23 17 12 12 14 16 16 14 14 14 13 13 15 17 19 20 22 25 23 22 23 23 22 20 19 18 18 17 16 15 13 13 13 12 11 11 10 11 11 10 10 9 8 8 8 8 9 10 11 11 12 14 15 15 14 14 15 15 15 14 13 13 12 11 10 9 9 8 7 7 6 6 5 5 5 6 5 5 5 5 6 6 6 6 7 7 7 7 7 7 7 7 8 9 8
28 26 23 18 12 11 13 15 16 15 14 13 13 13 14 17 19 20 25 28 25 23 24 26 25 23 21 18 17 17 17 17 15 14 14 13 12 11 10 10 11 11 10 10 9 8 8 9 9 10 11 11 12 12 13 14 15 14 13 13 13 13 12 11 10 9 8 8 7 7 5 5 4 4 4 4 5 5 6 6 5 6 6 7 7 7 8 8 7 8 7 7 7 7 7 8 8
28 26 23 20 16 13 14 15 16 17 14 12 13 13 13 15 14 15 21 27 26 24 25 27 27 25 23 20 18 17 18 18 16 15 15 13 11 11 11 11 11 11 11 10 10 9 9 9 9 10 11 11 12 12 12 13 13 13 13 12 11 11 11 10 10 9 8 7 7 6 5 4 3 3 4 4 5 6 6 6 6 6 7 7 7 8 8 8 8 8 8 7 8 8 7 6 6
27 25 24 23 19 15 15 16 16 17 15 12 13 14 14 13 10 8 12 18 20 24 27 27 25 26 24 22 20 18 18 18 18 16 15 14 13 12 12 11 11 12 12 12 11 10 10 9 9 10 11 11 12 12 12 12 12 12 12 12 11 10 10 9 9 9 8 8 6 5 5 4 3 3 4 4 6 6 6 6 6 7 7 8 7 8 9 9 8 8 8 8 7 7 7 6 5
27 25 25 24 19 18 18 18 17 16 14 12 12 13 14 12 9 5 7 10 12 19 27 26 24 26 25 23 22 20 18 18 18 19 18 16 15 14 13 12 11 12 13 13 12 11 11 10 10 10 11 11 12 12 12 12 12 11 11 11 11 10 10 10 10 10 9 9 8 6 5 4 3 4 4 5 6 7 7 7 7 7 8 8 8 8 9 9 9 9 8 8 7 6 6 5 5
26 25 25 21 18 20 21 21 20 15 12 12 12 12 13 11 9 6 5 7 8 11 18 22 23 23 22 22 22 21 18 17 18 20 20 19 17 16 15 14 13 12 13 13 12 12 11 11 11 11 10 11 11 12 13 13 12 12 11 12 12 11 11 11 11 11 10 9 8 7 5 4 4 3 4 6 6 7 7 7 8 8 8 8 8 8 9 9 9 9 8 9 8 7 5 4 5
26 27 25 21 19 22 23 24 24 15 10 12 11 12 12 10 11 11 7 6 7 9 11 15 17 17 18 19 21 22 19 17 18 20 21 20 17 16 16 15 14 13 13 13 13 13 12 11 11 11 11 11 11 11 12 12 12 12 12 12 12 11 11 11 11 10 9 8 7 7 6 5 4 3 4 5 6 7 7 7 7 7 8 8 8 8 9 9 9 9 8 8 8 8 7 5 5
27 28 26 23 21 23 24 24 23 15 10 10 10 11 12 12 11 12 11 7 6 9 10 11 12 14 14 14 18 23 21 18 17 19 20 18 16 15 14 14 15 14 13 14 14 14 13 12 12 11 11 11 11 11 12 12 12 12 12 12 11 11 11 11 10 9 9 8 7 6 6 5 4 3 4 4 5 6 6 6 6 7 7 7 8 8 8 8 8 9 9 8 8 9 8 7 6
30 29 27 25 22 21 21 18 17 14 9 7 9 10 11 13 12 11 12 11 8 9 9 9 11 12 12 11 13 20 22 20 17 17 18 17 15 13 13 14 14 14 14 15 15 15 15 14 13 13 12 12 12 11 12 12 12 12 11 11 11 10 10 10 9 9 9 9 8 7 6 6 5 4 3 4 4 5 5 5 6 6 6 6 7 7 7 7 8 8 9 9 8 9 9 8 7
30 26 24 24 21 16 13 15 17 16 10 6 10 11 12 14 14 12 13 12 11 11 8 8 9 9 10 10 11 16 20 20 18 17 18 17 16 14 13 13 14 14 16 15 16 16 16 15 15 14 13 13 13 12 12 12 12 12 11 11 11 10 11 11 10 9 9 9 8 8 7 6 5 5 4 4 4 4 5 5 5 5 5 6 6 6 6 7 7 7 8 8 8 9 8 8 8
31 25 20 19 16 10 10 17 19 15 12 12 14 14 14 14 14 13 13 10 10 11 10 9 8 7 8 9 11 13 16 18 18 17 17 17 16 14 13 13 13 15 16 16 16 16 16 16 16 15 15 14 14 13 13 13 13 13 12 11 11 10 10 10 10 10 9 8 8 8 8 7 6 6 5 5 4 4 5 5 5 5 5 5 5 6 6 6 6 6 6 7 8 8 7 7 8
33 27 22 17 14 10 10 14 16 13 12 14 14 14 14 13 13 14 14 12 10 10 9 8 8 6 5 7 9 12 14 16 16 16 16 16 16 15 15 14 14 15 17 16 16 16 16 17 17 16 16 15 15 14 13 13 13 13 13 12 12 11 10 10 10 10 10 9 8 8 8 7 7 6 6 6 6 5 5 5 5 5 5 4 5 5 6 6 6 5 6 6 7 7 7 7 7
37 31 25 21 18 16 14 13 15 15 14 12 11 13 13 12 13 14 15 15 13 11 8 7 8 6 5 5 7 11 13 15 16 15 16 16 17 18 17 16 14 14 16 17 17 17 17 17 18 17 17 16 16 15 14 13 14 14 14 13 13 12 11 11 10 10 10 10 9 9 8 8 7 7 6 6 6 6 6 6 6 6 5 5 5 5 5 6 6 5 5 5 5 6 7 7 6
39 33 27 26 24 22 21 19 17 16 15 15 14 13 14 14 13 13 14 14 12 10 8 8 8 7 6 5 6 9 12 14 16 17 17 17 17 18 18 17 16 16 18 19 18 18 18 18 18 17 17 17 17 16 15 14 14 14 15 15 14 14 13 12 11 11 11 10 9 9 9 9 8 7 7 6 6 6 6 6 6 7 7 6 6 6 6 6 6 5 5 5 5 5 6 6 6
38 33 28 29 27 25 27 27 23 18 15 18 18 18 18 16 14 13 12 12 10 8 8 9 9 8 8 8 7 8 11 14 16 18 18 18 17 18 19 19 17 18 20 20 18 18 19 18 18 18 18 18 17 15 15 15 15 15 15 15 15 15 15 14 13 12 11 10 9 10 10 10 9 8 8 7 7 7 7 7 7 7 8 8 7 7 7 7 6 6 6 5 5 5 5 5 5
37 33 29 30 29 27 28 29 27 23 20 20 21 21 19 15 14 15 15 14 11 8 7 7 9 10 9 9 9 10 12 14 15 18 19 20 19 19 20 20 20 21 24 21 17 17 19 19 19 19 19 18 17 16 15 15 16 16 16 15 15 16 16 16 15 14 13 11 11 11 11 10 10 9 9 9 8 8 8 8 8 8 8 8 9 9 9 9 8 7 7 6 5 5 4 5 5
35 34 32 32 32 29 28 28 26 26 23 21 21 19 15 13 13 16 19 19 16 11 7 7 9 11 10 10 12 13 14 15 16 18 19 21 21 20 21 23 24 24 26 24 19 18 18 18 19 19 20 20 19 18 18 17 16 17 17 17 17 17 17 17 17 16 15 14 13 13 12 11 11 11 11 10 9 9 9 10 10 9 9 9 10 10 10 10 10 9 8 7 6 5 5 4 4
34 34 34 35 34 29 28 29 27 26 22 18 18 17 13 11 13 15 18 20 19 16 13 10 10 12 12 12 13 14 16 17 17 17 18 19 21 21 22 24 24 24 27 26 21 20 19 18 19 20 21 22 22 21 20 19 18 18 18 18 18 18 18 18 17 17 17 16 15 14 13 13 13 13 12 11 11 11 11 11 11 10 10 10 11 12 12 11 11 11 10 9 8 7 6 6 6
Wind_Direction
92 101 113 100 74 111 133 124 121 130 132 130 134 128 110 108 114 100 88 75 69 61 55 49 57 77 87 101 110 111 109 112 114 116 113 105 109 119 120 119 120 117 116 118 123 124 123 122 121 123 124 129 137 145 148 145 140 140 150 163 171 169 165 164 161 157 150 145 139 138 145 144 136 133 135 137 134 130 128 127 126 127 122 113 107 105 105 105 108 106 102 101 103 103 106 110 110
81 82 78 53 32 128 144 137 133 136 141 147 143 125 104 108 108 90 80 74 70 62 46 34 46 65 99 116 117 116 114 118 114 115 116 112 114 120 120 119 122 120 118 121 123 124 124 126 125 123 124 128 133 136 131 125 126 132 145 157 166 161 157 159 157 165 166 160 153 147 149 144 138 139 143 141 136 133 129 127 131 131 123 116 108 103 103 104 106 106 105 105 104 106 112 114 110
76 68 44 1 359 151 157 154 147 141 150 162 152 124 122 134 104 82 71 72 75 71 51 31 34 55 96 123 129 120 115 121 116 114 114 115 122 125 123 123 126 124 122 123 121 122 122 123 124 126 129 133 135 131 123 122 127 138 151 154 163 162 161 168 171 184 184 177 172 162 157 151 151 154 149 142 138 138 134 134 136 132 124 118 111 106 104 105 108 107 108 108 108 111 115 113 106
65 56 33 359 335 184 177 172 167 151 150 157 161 153 161 155 106 82 69 71 76 69 49 37 29 51 85 113 129 121 114 110 108 115 112 110 122 125 127 128 127 123 121 120 118 119 118 120 123 126 131 134 137 136 137 144 152 169 179 170 179 188 183 188 191 198 197 191 191 179 170 167 167 163 152 145 144 144 142 142 139 132 129 122 113 107 106 107 110 110 111 111 112 115 114 109 101
50 47 31 357 337 222 194 182 179 166 165 167 170 183 188 152 108 88 77 73 69 54 39 43 36 52 78 100 124 122 118 112 114 118 110 110 120 122 125 127 122 119 116 114 113 115 116 118 119 120 123 123 125 127 136 146 160 184 199 188 188 203 203 208 208 208 205 199 197 189 182 179 175 166 156 150 148 149 147 144 138 133 133 125 114 110 108 109 114 116 116 114 116 117 113 108 98
33 35 28 2 352 264 207 185 179 177 180 177 169 174 180 139 112 98 89 82 73 60 40 39 31 46 69 90 103 114 116 117 128 118 108 112 120 121 121 123 119 117 114 111 108 108 109 109 111 111 112 113 116 120 128 141 159 180 198 193 193 205 206 209 210 209 208 203 195 189 188 184 177 170 162 155 149 149 148 144 140 137 136 127 120 115 111 114 120 122 119 117 120 119 113 107 97
7 12 18 6 353 312 226 186 177 180 179 172 165 165 171 138 123 108 98 95 87 72 48 41 20 28 56 72 72 102 114 115 121 112 107 113 121 123 122 124 120 118 112 106 103 103 106 107 108 108 110 112 115 120 126 141 156 168 179 180 187 200 203 206 208 208 205 204 196 188 189 185 177 171 167 158 149 149 148 146 146 142 136 129 123 120 119 123 127 125 120 120 122 119 113 106 98
2 360 9 5 353 337 262 188 179 178 174 170 169 166 176 160 133 113 103 104 98 86 52 47 21 14 41 51 58 127 124 116 114 112 111 115 122 125 126 126 119 112 105 100 101 104 107 107 107 106 106 108 112 119 125 134 145 154 160 163 166 179 191 200 205 206 204 202 197 190 187 183 175 170 168 163 154 152 149 150 150 142 134 130 126 127 130 132 131 128 123 124 124 119 113 106 99
356 3 1 358 353 348 307 189 181 178 176 174 175 170 181 178 140 116 109 108 103 106 61 50 34 10 43 61 71 121 126 128 117 113 113 116 123 126 124 119 110 104 101 100 101 101 102 99 99 97 96 96 102 112 122 130 136 144 147 147 149 159 174 186 196 200 201 202 199 191 183 179 177 172 169 165 164 162 156 155 152 142 135 133 133 135 137 137 134 129 127 127 125 119 113 106 100
350 12 4 356 354 347 319 186 180 179 177 173 174 176 182 174 142 120 112 114 113 117 74 61 54 22 42 77 91 105 124 131 117 114 114 117 122 122 116 108 102 100 99 98 97 97 97 94 91 88 88 88 89 97 109 120 127 136 138 138 141 149 155 167 181 189 194 197 198 193 182 178 178 173 169 168 170 169 163 159 152 144 140 138 141 142 141 141 136 130 130 130 125 118 113 107 103
342 7 5 1 2 360 354 176 175 178 177 166 164 184 191 163 141 133 124 124 118 115 74 53 53 37 44 75 86 90 121 124 113 115 116 118 119 115 106 100 98 98 98 97 98 98 96 92 90 88 89 89 88 92 98 111 117 124 131 135 141 147 150 158 166 175 187 192 193 193 185 178 177 175 173 173 174 172 169 165 155 148 144 143 145 145 143 144 139 133 133 131 123 117 113 108 103
322 333 348 356 2 7 32 175 174 177 173 154 151 178 207 154 135 140 138 135 124 120 85 44 40 40 56 70 83 89 112 117 112 115 116 113 110 108 102 99 96 95 97 98 99 97 96 94 94 93 93 94 94 95 99 107 112 119 129 137 147 149 149 155 159 168 180 185 186 188 186 182 180 178 175 176 176 174 173 168 159 151 147 145 145 146 146 146 141 134 134 130 123 118 114 109 105
316 314 332 350 359 9 66 182 180 177 173 149 139 148 189 146 123 135 143 139 129 128 96 53 47 44 61 70 85 95 109 110 112 116 114 108 102 101 96 95 93 91 93 93 94 94 97 99 99 98 96 97 98 99 100 103 108 114 126 138 145 142 144 154 157 163 171 177 178 178 183 183 182 181 178 178 178 175 173 167 158 151 147 146 146 148 149 148 142 136 135 130 123 120 115 110 106
293 302 322 352 7 19 50 181 187 179 173 151 137 140 156 146 131 138 153 147 137 134 95 67 48 45 62 72 75 82 104 102 109 115 111 107 99 96 91 91 92 90 89 87 90 95 99 101 100 99 96 96 97 99 99 100 102 106 120 130 130 130 143 155 153 155 161 169 170 170 179 179 180 182 180 181 179 174 171 164 156 151 149 148 149 151 151 147 141 139 137 130 124 121 115 111 108
264 282 304 351 16 29 51 150 195 193 178 160 146 127 139 166 191 156 164 164 143 141 94 77 57 46 60 68 63 63 85 95 106 112 108 105 96 93 91 88 88 86 86 87 90 91 93 94 95 96 97 99 96 93 90 90 93 96 101 100 109 125 141 150 147 149 155 163 164 163 171 174 176 180 181 182 177 172 169 160 153 151 149 148 150 152 151 145 142 141 137 130 125 121 117 113 110
253 266 284 333 13 25 47 72 208 209 187 169 161 126 141 171 190 169 174 170 155 142 84 76 58 54 58 62 61 57 67 89 101 106 103 99 90 90 91 87 83 82 82 85 88 87 87 88 91 95 99 101 97 89 84 84 86 86 83 85 100 119 128 137 142 146 153 160 161 158 163 169 171 174 179 178 174 170 165 155 150 151 148 148 151 152 150 145 143 141 136 131 125 120 118 113 110
247 254 292 315 8 18 16 41 32 210 193 180 167 133 143 167 169 173 176 168 187 174 87 68 58 65 62 66 67 55 55 89 102 106 102 98 92 90 91 89 86 82 78 80 87 87 84 86 89 93 95 94 90 87 85 84 84 82 81 84 94 104 115 128 136 142 149 155 154 156 162 165 166 168 170 170 168 162 156 150 150 150 149 150 153 152 148 144 143 141 135 129 124 121 119 116 113
247 258 286 283 279 13 358 18 38 183 201 201 175 138 147 172 175 184 185 177 182 145 135 313 69 75 74 79 78 61 53 94 108 113 106 101 98 92 91 91 88 83 78 79 85 86 84 86 90 91 90 85 82 82 86 87 83 80 79 81 87 94 102 111 121 132 142 148 149 155 161 161 162 162 161 162 159 152 149 148 149 151 151 151 153 151 146 144 143 139 133 126 122 122 121 118 115
245 245 230 272 264 297 4 8 30 48 218 218 186 146 160 182 187 191 193 191 182 180 224 215 96 89 90 90 86 72 60 95 113 117 111 107 103 93 90 90 88 85 81 82 84 84 85 86 86 84 83 81 79 78 81 84 83 80 79 79 82 88 93 98 104 115 130 140 144 153 160 159 158 154 153 154 150 146 147 148 150 153 152 151 152 149 144 145 143 138 131 125 123 123 120 116 113
238 227 202 244 262 260 288 172 349 334 227 220 193 155 170 187 185 192 197 192 201 215 231 227 158 134 108 99 88 78 65 86 108 114 112 109 104 95 91 88 89 89 86 87 87 84 83 81 80 80 82 81 78 76 77 79 80 81 82 80 80 87 93 96 100 107 120 132 141 152 156 155 151 147 147 147 145 145 147 148 150 152 150 149 150 146 144 145 143 136 129 125 127 127 122 115 112
231 234 209 226 246 258 261 242 309 289 218 209 196 172 179 185 174 188 201 190 215 226 223 223 185 141 113 107 92 80 70 78 97 110 111 107 103 96 93 91 91 93 92 91 90 87 84 80 78 80 85 84 80 77 79 79 78 80 81 82 83 88 94 96 99 105 115 124 133 143 148 149 145 142 142 143 144 144 146 148 150 150 148 147 147 145 145 146 141 134 127 125 129 129 122 115 113
227 234 216 226 238 253 266 257 285 270 220 198 194 189 187 186 179 190 204 199 219 223 211 207 187 152 115 111 98 90 86 79 85 106 109 105 102 96 93 94 94 94 94 95 93 89 84 81 79 80 84 84 81 79 80 81 80 80 79 81 85 89 92 94 96 100 106 114 124 133 139 142 140 139 138 139 143 143 144 146 147 147 145 145 144 144 145 143 138 132 126 125 128 126 119 116 116
224 225 215 225 233 249 264 259 273 262 230 202 196 200 196 191 188 192 196 198 205 209 211 207 201 187 131 119 104 101 99 85 65 89 99 101 103 100 95 96 97 94 96 99 96 91 85 82 80 79 81 80 79 78 79 82 82 83 82 82 84 86 89 92 94 96 99 106 116 125 131 134 136 136 134 136 139 139 140 142 143 144 143 143 143 143 141 138 132 126 122 122 123 120 115 115 119
226 223 214 221 230 249 252 254 264 242 234 220 202 198 198 197 194 188 191 197 190 190 204 207 208 210 155 131 115 110 108 96 53 57 90 96 102 102 100 99 98 94 97 101 100 96 91 88 84 78 76 77 77 77 78 82 84 85 85 85 83 83 87 91 94 96 97 101 109 119 125 129 132 133 132 134 135 134 135 137 140 140 139 140 140 140 136 131 124 118 119 121 122 118 111 111 119
235 231 221 221 230 246 245 250 250 221 225 218 196 188 193 199 193 184 187 194 189 188 197 202 207 209 180 145 125 118 112 101 69 67 97 98 101 102 100 101 100 98 100 104 103 100 97 94 89 82 78 77 77 77 78 80 81 83 86 88 86 84 86 90 94 97 98 100 105 114 121 126 128 130 130 131 131 131 134 136 136 136 136 138 139 137 133 128 123 121 122 124 124 116 104 103 117
234 235 230 226 230 240 242 246 235 210 205 194 191 188 192 198 191 185 182 181 186 190 196 201 201 201 194 164 135 127 118 106 89 87 98 96 99 99 99 102 105 103 106 106 102 101 99 95 91 89 85 81 79 78 79 79 79 82 86 90 91 90 88 91 95 98 99 101 105 111 118 123 126 128 130 130 130 132 134 135 135 134 134 136 138 136 130 125 122 122 125 126 121 110 99 97 109
225 229 233 229 231 236 241 247 236 214 199 189 188 182 188 201 194 187 176 174 184 190 199 206 202 198 198 182 151 139 128 118 113 107 99 97 96 95 94 98 106 107 106 104 101 101 99 95 94 94 92 86 83 82 81 82 82 84 88 91 94 94 93 95 100 102 102 103 107 112 117 121 125 127 129 130 130 131 132 133 134 134 134 136 139 136 129 124 120 120 127 131 121 107 98 97 105
222 227 232 232 236 235 243 259 255 226 204 202 194 179 190 209 198 186 179 180 189 189 200 212 213 205 196 191 171 155 140 132 130 118 111 104 98 95 88 89 103 107 105 102 101 102 98 96 98 97 95 91 88 87 85 85 86 88 90 93 94 95 96 100 104 106 106 108 111 115 119 122 125 127 128 128 128 129 130 132 134 133 133 134 136 134 128 124 122 124 130 133 124 113 108 110 118
221 225 229 231 236 234 241 266 262 228 209 212 198 183 199 212 199 191 186 184 183 185 202 212 216 209 198 195 181 170 154 143 139 130 132 127 102 93 89 85 96 105 104 102 100 101 98 98 100 100 98 96 95 93 92 91 91 91 92 94 94 94 96 100 104 106 108 112 115 118 122 124 125 126 127 126 127 128 130 131 132 131 128 128 130 129 125 123 124 127 127 129 129 125 127 131 132
221 224 230 232 234 234 237 252 244 215 206 207 197 191 201 204 197 194 191 188 180 186 205 209 214 208 199 199 187 180 167 153 148 147 152 141 109 95 99 94 93 102 104 102 99 99 99 99 101 103 101 98 98 98 97 96 97 96 94 95 96 97 99 102 105 106 108 112 116 119 122 124 125 127 127 128 128 129 130 132 132 130 128 128 130 130 126 123 125 128 126 130 140 139 143 146 138
222 222 227 232 235 236 235 232 208 203 205 202 199 199 195 189 194 195 191 193 189 192 204 206 210 204 198 201 192 186 176 164 158 159 165 153 141 126 109 104 99 101 104 103 99 97 100 102 101 102 100 98 98 99 99 100 101 100 99 98 99 101 105 107 109 109 111 113 117 120 123 125 127 128 130 131 131 131 132 134 133 131 131 132 132 129 126 125 128 132 134 140 147 144 144 139 128
217 216 221 227 231 235 237 231 211 205 210 201 198 199 192 189 199 199 194 199 198 197 204 207 207 200 198 201 195 192 183 172 164 162 172 169 159 151 114 108 106 102 104 103 101 99 100 102 100 100 100 97 96 97 100 102 104 104 103 103 102 106 110 111 112 113 114 116 119 121 124 127 128 130 131 132 132 132 132 131 131 130 130 131 129 125 124 126 131 135 140 145 142 135 133 124 124
212 210 216 221 223 229 235 233 220 210 215 206 196 191 192 198 204 202 200 204 204 201 202 205 205 198 197 201 199 194 188 179 171 166 171 174 170 163 141 123 114 107 106 104 104 102 100 101 100 100 99 98 96 97 99 103 106 107 106 106 106 109 113 114 116 117 118 121 123 124 126 127 129 130 131 132 132 131 130 128 128 129 130 129 124 121 120 121 124 127 132 135 135 137 142 136 133
212 208 212 217 217 222 225 229 224 210 210 209 198 191 197 203 204 208 211 208 206 205 200 201 204 198 197 201 200 196 193 185 174 169 171 174 175 170 155 140 127 117 112 107 107 104 101 102 101 100 99 100 99 99 101 104 107 108 107 108 110 114 116 118 119 120 122 124 125 126 127 128 129 130 131 131 130 129 128 128 130 130 130 129 122 115 112 110 111 114 119 125 136 147 151 149 143
211 207 209 215 219 221 219 221 225 214 202 205 200 201 208 208 211 219 218 210 207 204 199 200 202 198 197 199 199 199 197 191 178 172 174 174 177 172 157 148 136 127 121 112 109 107 105 106 106 103 101 102 103 103 104 107 109 108 108 111 115 118 119 119 119 120 121 122 123 125 126 127 128 128 128 127 127 128 130 132 134 134 134 130 120 110 104 100 102 108 115 126 143 152 153 153 144
209 206 208 213 220 222 219 219 224 221 214 211 208 212 214 213 224 230 222 212 209 207 201 201 202 197 198 199 197 200 201 196 182 177 179 173 176 174 156 150 143 135 132 125 121 117 112 110 112 111 109 108 107 107 108 109 111 111 113 115 116 118 119 119 119 118 119 120 121 122 123 125 127 127 128 129 131 133 136 136 134 134 133 123 114 109 101 94 99 109 116 129 142 145 137 120 99
211 210 211 211 216 218 218 221 222 225 229 233 224 222 221 220 223 220 219 217 210 209 206 202 202 197 198 202 199 198 203 203 185 183 186 173 174 176 158 152 149 143 140 138 138 128 119 116 117 118 117 115 112 113 113 113 114 116 117 118 118 119 119 119 119 119 119 120 120 121 123 125 127 128 130 131 132 133 133 129 129 133 130 122 115 113 115 109 103 103 110 120 126 126 122 109 101
212 212 216 214 214 214 217 222 224 226 232 248 244 233 231 234 222 210 219 227 215 210 208 201 199 196 196 203 204 201 204 206 189 187 194 179 177 179 163 155 151 147 145 147 153 141 129 122 120 123 124 122 120 120 121 119 118 119 121 121 122 123 123 122 121 121 120 120 120 121 122 123 124 124 125 126 126 124 120 117 125 133 131 128 121 120 124 117 105 99 101 103 107 111 116 115 118
209 207 216 215 212 214 218 223 228 230 234 249 257 242 232 234 233 223 223 229 226 218 207 196 196 197 196 201 206 205 206 207 191 191 199 188 184 182 168 160 156 153 150 155 165 157 143 132 126 127 129 129 127 126 126 125 124 124 124 124 125 126 126 126 125 124 122 121 121 120 120 120 120 120 120 122 124 123 120 116 116 119 123 125 123 123 121 112 106 105 106 108 114 120 117 112 115
211 206 208 209 209 215 221 226 229 235 238 245 258 248 232 226 232 234 224 221 226 223 206 193 193 195 196 203 205 202 205 207 194 195 202 194 192 190 176 167 163 161 158 160 168 165 156 145 136 132 133 136 135 131 131 132 130 129 129 128 128 129 128 129 128 128 126 124 122 121 119 118 120 122 122 125 129 128 127 124 119 117 122 125 121 118 114 110 109 111 114 121 129 129 121 115 115
213 210 206 206 211 213 223 230 229 235 241 244 252 248 235 226 229 232 226 222 226 222 206 194 194 195 195 204 206 198 200 204 196 199 205 199 197 197 186 176 171 167 165 164 164 166 165 159 149 138 138 143 142 139 140 141 140 139 137 137 136 135 135 134 132 130 129 127 124 120 119 120 124 126 127 129 128 130 134 133 129 124 124 127 124 119 113 108 105 106 109 117 125 126 121 120 123
211 213 210 206 205 205 220 232 229 232 241 245 249 249 236 228 230 230 228 227 225 222 210 196 194 197 194 200 205 196 197 200 196 200 210 205 200 200 195 186 178 172 171 169 166 168 171 170 162 149 146 147 145 149 151 150 150 150 148 145 142 142 144 142 139 137 136 134 130 125 122 124 128 129 130 130 130 135 139 140 136 128 126 128 125 119 113 107 103 104 107 114 121 124 124 127 130
208 209 212 208 205 207 220 231 229 228 237 242 243 246 234 226 232 233 228 227 226 226 217 200 195 196 193 197 203 197 196 198 193 198 212 213 208 208 204 196 187 179 177 176 173 170 171 175 171 162 158 152 148 153 159 156 156 156 155 153 152 153 155 152 149 149 147 143 139 136 136 138 136 133 133 136 139 140 143 146 139 128 126 128 126 120 114 110 105 103 105 112 120 125 130 130 127
206 201 205 210 214 222 228 230 230 228 233 240 241 242 237 231 233 234 224 223 227 228 216 202 197 197 191 193 201 198 197 196 188 190 206 213 212 214 211 205 198 188 184 183 181 175 172 174 176 175 171 161 153 156 160 161 157 157 158 158 161 164 161 159 156 155 151 148 146 143 141 141 135 129 129 133 137 138 141 141 134 129 129 130 134 129 122 115 108 104 104 108 117 126 131 131 125
212 203 203 209 213 223 228 229 231 229 230 239 243 240 239 235 226 228 222 215 223 224 214 205 203 201 194 191 195 197 197 194 183 184 199 209 210 212 211 209 207 198 191 189 187 182 176 176 179 183 181 172 165 162 162 163 158 157 162 160 163 166 163 162 160 155 153 152 150 146 137 130 125 120 117 120 126 131 134 133 133 135 133 132 136 134 126 120 115 113 113 112 116 120 124 126 121
215 211 205 203 205 216 224 226 226 226 227 235 240 238 239 235 222 222 219 203 209 213 207 204 205 205 202 198 196 196 195 192 182 181 195 206 207 209 209 208 211 207 198 192 192 190 184 180 179 186 189 183 179 171 163 165 163 162 165 163 163 165 162 162 160 155 156 156 152 146 136 124 119 116 115 116 120 125 130 133 134 134 131 129 131 128 122 120 118 118 118 117 118 118 117 117 111
209 212 204 197 198 208 214 218 217 216 224 230 230 228 229 231 227 224 214 194 194 193 189 193 196 199 202 204 204 200 196 194 185 182 193 204 206 207 208 208 212 211 202 197 196 193 190 186 181 187 195 193 190 183 171 168 168 170 171 168 167 167 163 163 162 158 158 158 155 149 139 129 126 126 124 121 124 127 130 134 134 132 131 129 128 124 121 121 122 123 121 121 124 125 124 127 127
204 208 203 198 197 202 203 207 208 203 214 227 221 217 216 219 222 221 217 207 181 174 174 180 187 193 197 200 207 205 201 198 189 183 192 202 205 205 207 210 214 214 206 200 199 197 194 191 188 191 198 200 197 190 184 178 175 177 177 172 172 170 168 168 167 165 162 161 163 157 146 139 138 140 139 133 132 133 133 137 140 141 142 140 134 132 131 131 133 132 130 132 134 130 129 137 141
203 202 199 196 195 198 194 192 189 180 188 219 220 210 206 213 215 209 211 212 192 171 169 177 188 198 199 197 202 202 203 205 196 186 192 202 203 200 204 210 213 218 213 204 202 200 196 193 193 196 200 204 201 195 193 189 184 184 181 176 179 176 171 172 171 172 171 168 170 168 160 153 149 150 155 151 147 145 143 146 152 154 156 153 147 147 150 150 149 145 142 146 146 138 138 142 139
203 200 194 193 196 197 184 172 166 159 159 187 210 204 197 206 212 208 205 203 196 187 180 185 188 194 201 201 200 198 202 208 204 194 192 199 203 198 197 203 206 214 217 209 205 204 199 195 195 198 203 206 205 199 198 198 194 192 187 181 185 183 174 173 173 175 179 176 175 176 172 166 161 161 168 171 171 168 163 161 163 166 167 169 167 167 169 166 164 162 158 160 158 150 150 150 143
203 201 194 198 208 200 166 162 163 163 170 186 202 204 196 201 208 207 200 189 187 185 180 186 188 188 200 206 207 204 203 204 203 200 196 197 203 201 198 200 199 206 215 212 207 206 201 197 195 197 205 211 209 204 203 205 203 199 195 190 190 190 182 179 180 179 181 182 183 183 178 171 169 175 180 183 188 192 188 180 175 177 179 180 183 183 183 180 180 181 178 175 168 162 163 160 156
201 201 198 205 217 208 176 167 173 188 192 188 200 205 196 196 198 196 190 182 179 178 178 189 195 197 209 215 215 212 211 209 209 209 202 197 201 207 208 207 202 203 212 211 206 207 204 199 197 197 203 213 214 210 207 210 212 207 203 199 196 196 192 190 190 188 185 186 190 192 185 178 180 189 192 189 192 201 205 199 188 186 189 189 193 195 193 193 194 196 194 187 176 172 176 172 168
199 198 195 200 207 206 194 180 185 203 208 198 201 206 204 201 195 188 185 185 182 176 178 194 203 208 214 214 209 209 212 216 218 219 213 204 205 210 211 211 210 207 212 212 206 209 210 202 199 198 201 211 217 215 212 214 218 215 210 206 202 201 200 199 197 195 194 191 194 200 196 190 191 198 203 194 192 202 210 212 206 198 197 197 201 207 206 203 201 200 199 196 189 186 187 182 178
198 195 195 202 207 210 210 202 195 199 212 218 219 219 220 218 208 195 191 195 193 187 192 202 208 214 219 216 208 206 208 212 218 221 218 214 211 213 212 210 209 209 215 218 211 211 215 209 203 200 200 208 216 217 216 217 223 222 217 213 209 207 206 207 205 204 204 197 196 205 206 201 199 205 214 206 198 204 212 217 216 211 208 208 209 213 216 214 211 209 204 202 203 202 197 191 189
193 190 195 202 204 209 216 216 212 208 215 228 234 234 232 232 232 227 220 216 212 210 215 216 216 218 221 219 214 213 212 214 219 221 221 219 216 217 218 215 210 206 213 221 217 212 216 215 210 205 203 207 213 218 219 220 224 228 226 222 219 217 214 212 211 212 215 210 206 212 213 209 206 210 219 218 211 212 215 218 221 220 216 213 214 216 219 223 224 220 216 214 213 211 210 208 203
189 190 196 200 198 201 207 212 215 214 214 223 231 234 235 239 242 242 242 240 235 232 233 231 229 226 224 223 224 228 227 222 225 227 226 224 220 219 221 219 213 207 210 218 220 216 216 217 215 211 209 209 212 217 220 221 224 228 230 228 226 224 221 219 217 217 220 220 219 221 220 216 215 217 220 220 219 220 220 219 221 223 220 217 218 221 221 226 229 228 225 226 226 221 221 226 224
191 194 195 196 198 200 202 203 204 203 201 207 216 219 223 228 229 235 241 242 238 235 233 238 240 236 231 227 228 230 230 228 229 230 228 226 223 221 220 220 216 210 211 214 216 219 219 217 216 213 212 212 213 218 220 223 226 228 229 230 230 229 228 226 223 222 223 223 223 225 225 223 222 223 223 221 221 224 226 225 225 224 223 220 221 224 225 227 231 233 232 230 231 230 229 233 240
192 195 194 193 194 196 198 199 199 198 196 200 207 206 206 214 216 224 236 241 240 236 233 232 235 238 238 232 229 227 225 228 231 230 227 224 223 222 223 225 221 213 212 212 214 219 218 215 214 211 210 210 211 216 219 221 224 226 228 229 231 232 232 231 229 226 226 226 226 227 228 227 226 225 226 224 224 226 228 230 230 228 227 224 223 225 228 230 233 236 237 233 232 232 234 237 244